Time,TemperatureF,DewpointF,PressureIn,WindDirection,WindDirectionDegrees,WindSpeedMPH,WindSpeedGustMPH,Humidity,HourlyPrecipIn,Conditions,Clouds,dailyrainin,SoftwareType,DateUTC
2013-07-07 00:01:00,78.0,72.0,29.97,West,272,0.0,7.0,82,0.00,,,0.02,,2013-07-07 05:01:00,
2013-07-07 01:01:00,74.0,72.0,30.00,WSW,256,0.0,0.0,92,0.00,,,0.02,,2013-07-07 06:01:00,
2013-07-07 01:11:00,74.0,72.0,30.00,WSW,256,0.0,0.0,92,0.00,,,0.02,,2013-07-07 06:11:00,
2013-07-07 01:21:00,74.0,72.0,30.00,WSW,256,0.0,0.0,93,0.00,,,0.02,,2013-07-07 06:21:00,
2013-07-07 01:32:00,74.0,72.0,30.00,WSW,256,0.0,0.0,92,0.00,,,0.02,,2013-07-07 06:32:00,
2013-07-07 01:43:00,74.0,72.0,30.00,WSW,256,0.0,0.0,93,0.00,,,0.02,,2013-07-07 06:43:00,
2013-07-07 01:52:00,74.0,72.0,29.99,WSW,256,0.0,0.0,93,0.00,,,0.02,,2013-07-07 06:52:00,
2013-07-07 02:02:00,73.0,71.0,29.99,WSW,256,0.0,0.0,94,0.00,,,0.02,,2013-07-07 07:02:00,
2013-07-07 02:11:00,73.0,71.0,29.99,WSW,256,0.0,0.0,94,0.00,,,0.02,,2013-07-07 07:11:00,
2013-07-07 02:22:00,73.0,71.0,29.99,WSW,256,0.0,0.0,94,0.00,,,0.02,,2013-07-07 07:22:00,
2013-07-07 02:33:00,73.0,71.0,29.99,WSW,256,0.0,2.0,94,0.00,,,0.02,,2013-07-07 07:33:00,
2013-07-07 02:44:00,74.0,72.0,29.99,WSW,256,0.0,2.0,95,0.00,,,0.02,,2013-07-07 07:44:00,
2013-07-07 02:53:00,73.0,71.0,29.99,WSW,256,0.0,2.0,95,0.00,,,0.02,,2013-07-07 07:53:00,
2013-07-07 03:02:00,73.0,71.0,29.99,WSW,256,0.0,2.0,95,0.00,,,0.02,,2013-07-07 08:02:00,
2013-07-07 03:12:00,73.0,71.0,29.99,WSW,256,0.0,2.0,95,0.00,,,0.02,,2013-07-07 08:12:00,
2013-07-07 03:22:00,73.0,71.0,29.99,WSW,256,0.0,2.0,95,0.00,,,0.02,,2013-07-07 08:22:00,
2013-07-07 03:34:00,73.0,71.0,29.99,WSW,256,0.0,2.0,95,0.00,,,0.02,,2013-07-07 08:34:00,
2013-07-07 03:44:00,73.0,71.0,29.99,WSW,256,0.0,2.0,95,0.00,,,0.02,,2013-07-07 08:44:00,
2013-07-07 03:53:00,73.0,71.0,30.00,WSW,256,0.0,2.0,95,0.00,,,0.02,,2013-07-07 08:53:00,
2013-07-07 04:02:00,73.0,71.0,30.00,WSW,256,0.0,2.0,95,0.00,,,0.02,,2013-07-07 09:02:00,
2013-07-07 04:12:00,73.0,71.0,29.99,WSW,256,0.0,2.0,95,0.00,,,0.02,,2013-07-07 09:12:00,
2013-07-07 04:22:00,73.0,71.0,30.00,WSW,256,0.0,2.0,95,0.00,,,0.02,,2013-07-07 09:22:00,
2013-07-07 04:34:00,73.0,71.0,30.00,WSW,256,0.0,2.0,95,0.00,,,0.02,,2013-07-07 09:34:00,
2013-07-07 04:43:00,73.0,71.0,30.00,WSW,256,0.0,2.0,95,0.00,,,0.02,,2013-07-07 09:43:00,
2013-07-07 04:53:00,73.0,71.0,30.01,WSW,256,0.0,2.0,95,0.00,,,0.02,,2013-07-07 09:53:00,
2013-07-07 05:03:00,73.0,71.0,30.00,WSW,256,0.0,2.0,95,0.00,,,0.02,,2013-07-07 10:03:00,
2013-07-07 05:12:00,73.0,71.0,30.00,WSW,256,0.0,2.0,95,0.00,,,0.02,,2013-07-07 10:12:00,
2013-07-07 05:22:00,73.0,71.0,30.00,WSW,256,0.0,2.0,95,0.00,,,0.02,,2013-07-07 10:22:00,
2013-07-07 05:32:00,73.0,71.0,30.01,WSW,256,0.0,2.0,95,0.00,,,0.02,,2013-07-07 10:32:00,
2013-07-07 05:43:00,73.0,72.0,30.01,WSW,256,0.0,2.0,96,0.00,,,0.02,,2013-07-07 10:43:00,
2013-07-07 05:52:00,73.0,72.0,30.00,WSW,256,0.0,2.0,96,0.00,,,0.02,,2013-07-07 10:52:00,
2013-07-07 06:02:00,73.0,72.0,30.01,WSW,256,0.0,2.0,96,0.00,,,0.02,,2013-07-07 11:02:00,
2013-07-07 06:11:00,73.0,72.0,30.01,WSW,256,0.0,2.0,96,0.00,,,0.02,,2013-07-07 11:11:00,
2013-07-07 06:23:00,73.0,72.0,30.01,WSW,256,0.0,2.0,96,0.00,,,0.02,,2013-07-07 11:23:00,
2013-07-07 06:34:00,74.0,73.0,30.01,WSW,256,0.0,2.0,96,0.00,,,0.02,,2013-07-07 11:34:00,
2013-07-07 06:43:00,74.0,73.0,30.01,WSW,256,0.0,2.0,96,0.00,,,0.02,,2013-07-07 11:43:00,
2013-07-07 06:53:00,74.0,73.0,30.01,WSW,248,0.0,2.0,96,0.00,,,0.02,,2013-07-07 11:53:00,
2013-07-07 07:02:00,74.0,73.0,30.01,WSW,248,0.0,2.0,96,0.00,,,0.02,,2013-07-07 12:02:00,
2013-07-07 07:12:00,74.0,73.0,30.02,WSW,248,0.0,2.0,96,0.00,,,0.02,,2013-07-07 12:12:00,
2013-07-07 07:22:00,74.0,73.0,30.02,WSW,248,0.0,2.0,96,0.00,,,0.02,,2013-07-07 12:22:00,
2013-07-07 07:34:00,74.0,72.0,30.02,WSW,248,0.0,2.0,95,0.00,,,0.02,,2013-07-07 12:34:00,
2013-07-07 07:43:00,74.0,72.0,30.03,North,354,0.0,2.0,95,0.00,,,0.02,,2013-07-07 12:43:00,
2013-07-07 07:52:00,74.0,72.0,30.03,North,354,0.0,2.0,95,0.00,,,0.02,,2013-07-07 12:52:00,
2013-07-07 08:02:00,74.0,72.0,30.04,North,355,0.0,3.0,95,0.00,,,0.02,,2013-07-07 13:02:00,
2013-07-07 08:11:00,75.0,73.0,30.04,North,351,0.0,3.0,94,0.00,,,0.02,,2013-07-07 13:11:00,
2013-07-07 08:22:00,75.0,73.0,30.04,SW,218,1.0,7.0,93,0.00,,,0.02,,2013-07-07 13:22:00,
2013-07-07 08:34:00,75.0,73.0,30.04,South,169,2.0,7.0,93,0.00,,,0.02,,2013-07-07 13:34:00,
2013-07-07 08:43:00,76.0,74.0,30.05,South,181,0.0,7.0,92,0.00,,,0.02,,2013-07-07 13:43:00,
2013-07-07 08:52:00,76.0,74.0,30.05,South,181,0.0,7.0,92,0.00,,,0.02,,2013-07-07 13:52:00,
2013-07-07 09:02:00,76.0,73.0,30.05,South,189,0.0,7.0,91,0.00,,,0.02,,2013-07-07 14:02:00,
2013-07-07 09:12:00,76.0,73.0,30.05,SW,215,0.0,7.0,90,0.00,,,0.02,,2013-07-07 14:12:00,
2013-07-07 09:22:00,77.0,73.0,30.06,SSE,147,0.0,7.0,88,0.00,,,0.02,,2013-07-07 14:22:00,
2013-07-07 09:34:00,77.0,73.0,30.06,SSW,197,0.0,7.0,88,0.00,,,0.02,,2013-07-07 14:34:00,
2013-07-07 09:43:00,77.0,72.0,30.06,SW,236,0.0,7.0,86,0.00,,,0.02,,2013-07-07 14:43:00,
2013-07-07 09:53:00,77.0,73.0,30.06,NW,317,0.0,7.0,87,0.00,,,0.02,,2013-07-07 14:53:00,
2013-07-07 10:02:00,78.0,74.0,30.06,WNW,282,0.0,7.0,87,0.00,,,0.02,,2013-07-07 15:02:00,
2013-07-07 10:11:00,78.0,73.0,30.06,West,281,0.0,7.0,86,0.00,,,0.02,,2013-07-07 15:11:00,
2013-07-07 10:22:00,78.0,73.0,30.06,WSW,254,0.0,7.0,85,0.00,,,0.02,,2013-07-07 15:22:00,
2013-07-07 10:34:00,78.0,73.0,30.06,SW,225,0.0,7.0,84,0.00,,,0.02,,2013-07-07 15:34:00,
2013-07-07 10:43:00,80.0,75.0,30.06,East,80,0.0,7.0,84,0.00,,,0.02,,2013-07-07 15:43:00,
2013-07-07 10:52:00,80.0,74.0,30.06,West,261,1.0,7.0,81,0.00,,,0.02,,2013-07-07 15:52:00,
2013-07-07 11:01:00,80.0,74.0,30.06,West,261,0.0,7.0,81,0.00,,,0.02,,2013-07-07 16:01:00,
2013-07-07 11:11:00,80.0,74.0,30.06,West,261,0.0,7.0,81,0.00,,,0.02,,2013-07-07 16:11:00,
2013-07-07 11:23:00,82.0,76.0,30.05,NE,51,1.0,7.0,81,0.00,,,0.02,,2013-07-07 16:23:00,
2013-07-07 11:43:00,84.0,75.0,30.05,NNE,33,1.0,7.0,75,0.00,,,0.02,,2013-07-07 16:43:00,
2013-07-07 11:53:00,84.0,74.0,30.04,SSW,192,0.0,7.0,72,0.00,,,0.02,,2013-07-07 16:53:00,
2013-07-07 12:02:00,85.0,75.0,30.04,SW,226,0.0,7.0,73,0.00,,,0.02,,2013-07-07 17:02:00,
2013-07-07 12:12:00,86.0,75.0,30.04,SSW,199,0.0,7.0,71,0.00,,,0.02,,2013-07-07 17:12:00,
2013-07-07 12:22:00,86.0,75.0,30.04,West,272,0.0,7.0,69,0.00,,,0.02,,2013-07-07 17:22:00,
2013-07-07 12:34:00,85.0,74.0,30.04,West,276,0.0,7.0,70,0.00,,,0.02,,2013-07-07 17:34:00,
2013-07-07 12:43:00,85.0,75.0,30.03,NW,307,0.0,7.0,72,0.00,,,0.02,,2013-07-07 17:43:00,
2013-07-07 12:53:00,86.0,75.0,30.03,ENE,68,0.0,7.0,70,0.00,,,0.02,,2013-07-07 17:53:00,
2013-07-07 13:02:00,87.0,75.0,30.03,East,79,0.0,7.0,67,0.00,,,0.02,,2013-07-07 18:02:00,
2013-07-07 13:11:00,88.0,75.0,30.03,ENE,61,0.0,7.0,65,0.00,,,0.02,,2013-07-07 18:11:00,
2013-07-07 13:22:00,86.0,74.0,30.03,WNW,283,0.0,7.0,68,0.00,,,0.02,,2013-07-07 18:22:00,
2013-07-07 13:33:00,87.0,75.0,30.02,NW,307,0.0,7.0,67,0.00,,,0.02,,2013-07-07 18:33:00,
2013-07-07 13:43:00,88.0,74.0,30.02,WNW,295,0.0,7.0,64,0.00,,,0.02,,2013-07-07 18:43:00,
2013-07-07 13:53:00,89.0,75.0,30.02,South,174,0.0,7.0,63,0.00,,,0.02,,2013-07-07 18:53:00,
2013-07-07 14:01:00,89.0,75.0,30.02,ENE,72,0.0,7.0,63,0.00,,,0.02,,2013-07-07 19:01:00,
2013-07-07 14:11:00,88.0,75.0,30.01,East,98,0.0,7.0,65,0.00,,,0.02,,2013-07-07 19:11:00,
2013-07-07 14:22:00,88.0,74.0,30.01,South,179,0.0,7.0,64,0.00,,,0.02,,2013-07-07 19:22:00,
2013-07-07 14:34:00,88.0,74.0,30.01,South,179,0.0,7.0,64,0.00,,,0.02,,2013-07-07 19:34:00,
2013-07-07 14:43:00,87.0,74.0,30.01,ESE,112,0.0,7.0,65,0.00,,,0.02,,2013-07-07 19:43:00,
2013-07-07 14:54:00,87.0,73.0,30.01,ESE,112,0.0,7.0,64,0.00,,,0.02,,2013-07-07 19:54:00,
2013-07-07 15:02:00,87.0,73.0,30.01,ESE,112,0.0,7.0,63,0.00,,,0.02,,2013-07-07 20:02:00,
2013-07-07 15:11:00,88.0,74.0,30.01,WSW,243,0.0,7.0,64,0.00,,,0.02,,2013-07-07 20:11:00,
2013-07-07 15:22:00,89.0,74.0,30.00,NW,326,2.0,7.0,62,0.00,,,0.02,,2013-07-07 20:22:00,
2013-07-07 15:34:00,90.0,73.0,30.00,NE,49,1.0,7.0,58,0.00,,,0.01,,2013-07-07 20:34:00,
2013-07-07 15:42:00,90.0,74.0,29.99,NE,49,1.0,7.0,60,0.00,,,0.01,,2013-07-07 20:42:00,
2013-07-07 15:53:00,89.0,74.0,30.00,NE,55,0.0,7.0,61,0.00,,,0.01,,2013-07-07 20:53:00,
2013-07-07 16:02:00,87.0,75.0,29.99,NE,55,0.0,7.0,67,0.00,,,0.01,,2013-07-07 21:02:00,
2013-07-07 16:11:00,86.0,75.0,29.99,NE,55,0.0,7.0,69,0.00,,,0.01,,2013-07-07 21:11:00,
2013-07-07 16:22:00,85.0,74.0,29.99,NE,55,0.0,7.0,70,0.00,,,0.01,,2013-07-07 21:22:00,
2013-07-07 16:33:00,86.0,73.0,29.99,East,94,0.0,7.0,66,0.00,,,0.01,,2013-07-07 21:33:00,
2013-07-07 16:43:00,90.0,76.0,29.98,NW,325,0.0,7.0,63,0.00,,,0.01,,2013-07-07 21:43:00,
2013-07-07 16:53:00,91.0,75.0,29.98,ENE,74,1.0,7.0,60,0.00,,,0.01,,2013-07-07 21:53:00,
2013-07-07 17:01:00,92.0,76.0,29.98,North,5,0.0,7.0,59,0.00,,,0.00,,2013-07-07 22:01:00,
2013-07-07 17:11:00,93.0,75.0,29.98,NNE,28,0.0,7.0,57,0.00,,,0.00,,2013-07-07 22:11:00,
2013-07-07 17:22:00,92.0,75.0,29.98,NE,43,0.0,7.0,57,0.00,,,0.00,,2013-07-07 22:22:00,
2013-07-07 17:34:00,92.0,75.0,29.98,NE,43,0.0,7.0,58,0.00,,,0.00,,2013-07-07 22:34:00,
2013-07-07 17:43:00,90.0,73.0,29.98,NE,43,0.0,7.0,58,0.00,,,0.00,,2013-07-07 22:43:00,
2013-07-07 17:53:00,88.0,74.0,29.98,NE,43,0.0,7.0,63,0.00,,,0.00,,2013-07-07 22:53:00,
2013-07-07 18:02:00,86.0,75.0,29.98,NE,43,0.0,7.0,69,0.00,,,0.00,,2013-07-07 23:02:00,
2013-07-07 18:12:00,85.0,75.0,29.98,NE,43,0.0,7.0,71,0.00,,,0.00,,2013-07-07 23:12:00,
2013-07-07 18:22:00,85.0,75.0,29.98,NE,43,0.0,7.0,71,0.00,,,0.00,,2013-07-07 23:22:00,
2013-07-07 18:33:00,84.0,75.0,29.98,NE,43,0.0,7.0,74,0.00,,,0.00,,2013-07-07 23:33:00,
2013-07-07 18:43:00,83.0,75.0,29.99,NE,43,0.0,7.0,76,0.00,,,0.00,,2013-07-07 23:43:00,
2013-07-07 18:53:00,83.0,75.0,30.00,NE,43,0.0,7.0,77,0.00,,,0.00,,2013-07-07 23:53:00,
2013-07-07 19:01:00,83.0,75.0,30.00,NE,43,0.0,7.0,78,0.00,,,0.00,,2013-07-08 00:01:00,
2013-07-07 19:11:00,82.0,75.0,30.00,NE,43,0.0,7.0,79,0.00,,,0.00,,2013-07-08 00:11:00,
2013-07-07 19:22:00,82.0,75.0,30.00,NE,43,0.0,7.0,80,0.00,,,0.00,,2013-07-08 00:22:00,
2013-07-07 19:33:00,82.0,75.0,30.00,NE,43,0.0,7.0,80,0.00,,,0.00,,2013-07-08 00:33:00,
2013-07-07 19:43:00,82.0,75.0,30.01,NE,43,0.0,7.0,80,0.00,,,0.00,,2013-07-08 00:43:00,
2013-07-07 19:53:00,82.0,76.0,30.01,NE,43,0.0,7.0,81,0.00,,,0.00,,2013-07-08 00:53:00,
2013-07-07 20:01:00,82.0,76.0,30.01,NE,43,0.0,7.0,81,0.00,,,0.00,,2013-07-08 01:01:00,
2013-07-07 20:11:00,82.0,76.0,30.01,NE,43,0.0,7.0,81,0.00,,,0.00,,2013-07-08 01:11:00,
2013-07-07 20:22:00,81.0,75.0,30.01,NE,43,0.0,7.0,82,0.00,,,0.00,,2013-07-08 01:22:00,
2013-07-07 20:32:00,81.0,75.0,30.02,SW,228,1.0,7.0,81,0.00,,,0.00,,2013-07-08 01:32:00,
2013-07-07 20:43:00,81.0,74.0,30.03,SW,221,0.0,7.0,80,0.02,,,0.02,,2013-07-08 01:43:00,
2013-07-07 20:52:00,80.0,74.0,30.03,South,174,0.0,7.0,81,0.02,,,0.02,,2013-07-08 01:52:00,
2013-07-07 21:02:00,79.0,73.0,30.03,WSW,257,0.0,7.0,82,0.02,,,0.02,,2013-07-08 02:02:00,
2013-07-07 21:11:00,78.0,73.0,30.04,SSE,160,0.0,7.0,84,0.02,,,0.02,,2013-07-08 02:11:00,
2013-07-07 21:22:00,77.0,73.0,30.04,SSE,147,0.0,7.0,87,0.02,,,0.02,,2013-07-08 02:22:00,
2013-07-07 21:33:00,77.0,73.0,30.04,SSE,168,0.0,7.0,88,0.02,,,0.02,,2013-07-08 02:33:00,
2013-07-07 21:42:00,77.0,73.0,30.05,South,184,0.0,7.0,88,0.02,,,0.02,,2013-07-08 02:42:00,
2013-07-07 21:52:00,76.0,73.0,30.06,SSW,211,0.0,7.0,89,0.00,,,0.02,,2013-07-08 02:52:00,
2013-07-07 22:01:00,76.0,73.0,30.06,SSW,211,0.0,7.0,90,0.00,,,0.02,,2013-07-08 03:01:00,
2013-07-07 22:12:00,76.0,73.0,30.06,SSW,210,0.0,7.0,91,0.00,,,0.02,,2013-07-08 03:12:00,
2013-07-07 22:23:00,76.0,73.0,30.06,SSW,209,0.0,7.0,91,0.00,,,0.02,,2013-07-08 03:23:00,
2013-07-07 22:34:00,76.0,73.0,30.06,SW,220,0.0,7.0,91,0.00,,,0.02,,2013-07-08 03:34:00,
2013-07-07 22:42:00,76.0,73.0,30.07,SW,220,0.0,7.0,91,0.00,,,0.02,,2013-07-08 03:42:00,
2013-07-07 22:52:00,76.0,73.0,30.07,SW,220,0.0,7.0,91,0.00,,,0.02,,2013-07-08 03:52:00,
2013-07-07 23:02:00,76.0,74.0,30.07,SW,220,0.0,7.0,92,0.00,,,0.02,,2013-07-08 04:02:00,
2013-07-07 23:12:00,75.0,73.0,30.07,SW,220,0.0,7.0,92,0.00,,,0.02,,2013-07-08 04:12:00,
2013-07-07 23:22:00,75.0,73.0,30.07,SW,220,0.0,7.0,92,0.00,,,0.02,,2013-07-08 04:22:00,
2013-07-07 23:33:00,75.0,73.0,30.06,SE,143,0.0,7.0,93,0.00,,,0.02,,2013-07-08 04:33:00,
2013-07-07 23:42:00,75.0,73.0,30.06,SSW,208,0.0,7.0,93,0.00,,,0.02,,2013-07-08 04:42:00,
2013-07-07 23:53:00,76.0,74.0,30.06,SE,133,0.0,7.0,93,0.00,,,0.02,,2013-07-08 04:53:00,